Home > Weather > Lomé > Past weeks

Flag for Togo Past Weather in Lomé, Togo — Yesterday and Last 2 Weeks

Now
79 °F

Passing clouds.


Feels Like: 82 °F
Forecast: 76 / 84 °F
Wind: 9 mph from Southwest

Location: Lome Airport

Current Time: Jun 29, 2016 at 12:21:11 AM

Latest Report: Jun 29, 2016 at 12:00 AM


Visibility: N/A

Pressure: 29.98 "Hg

Humidity: 89%

Dew Point: 75 °F

Location of LoméLocation

Past Weather in Lomé — Graph

°F

Lomé Temperature Yesterday

Maximum temperature yesterday: 84 °F (at 2:00 PM)
Minimum temperature yesterday: 77 °F (at 2:30 AM)
Average temperature yesterday: 80 °F

High & Low Weather Summary for the Past Weeks

 TemperatureHumidityPressure
High86 °F (Jun 14, 11:30 AM)100% (Jun 14, 1:00 AM)30.07 "Hg (Jun 14, 1:00 AM)
Low72 °F (Jun 19, 9:30 AM)70% (Jun 14, 12:00 PM)29.89 "Hg (Jun 18, 5:00 PM)
Average79 °F89%29.97 "Hg
* Reported Jun 13 11:00 PM — Jun 28 11:00 PM, Lomé, Weather by CustomWeather, © 2016

Note: Actual official high and low records may vary slightly from our data, if they occured in-between our weather recording intervals... More about our weather records

Advertising

Lomé Weather History for the Previous 24 Hours

Scroll right to see more
 ConditionsComfort  
Time TempWeatherWind HumidityBarometerVisibility
11:00 PM
Tue, Jun 28
79 °FPassing clouds.8 mph89%30.01 "HgN/A
10:30 PM79 °FPassing clouds.9 mph89%30.01 "HgN/A
10:00 PM79 °FPassing clouds.9 mph89%30.01 "HgN/A
9:30 PM79 °FPassing clouds.9 mph89%30.01 "HgN/A
9:00 PM79 °FPassing clouds.12 mph89%30.01 "HgN/A
8:30 PM79 °FPassing clouds.12 mph89%30.01 "HgN/A
8:00 PM79 °FPassing clouds.10 mph89%29.98 "HgN/A
7:30 PM79 °FPassing clouds.13 mph89%29.98 "HgN/A
7:00 PM79 °FPassing clouds.14 mph89%29.98 "HgN/A
6:30 PM79 °FPassing clouds.12 mph89%29.98 "HgN/A
6:00 PM79 °FPassing clouds.13 mph89%29.98 "HgN/A
5:30 PM81 °FPassing clouds.13 mph84%29.95 "HgN/A
5:00 PM81 °FPassing clouds.14 mph84%29.95 "HgN/A
4:30 PM81 °FPassing clouds.16 mph84%29.95 "HgN/A
4:00 PM82 °FPassing clouds.16 mph79%29.95 "HgN/A
3:30 PM82 °FPassing clouds.16 mph79%29.95 "HgN/A
3:00 PM82 °FPassing clouds.17 mph79%29.95 "HgN/A
2:30 PM84 °FPassing clouds.16 mph74%29.95 "HgN/A
2:00 PM84 °FScattered clouds.15 mph79%29.98 "HgN/A
1:30 PM82 °FScattered clouds.16 mph79%29.98 "HgN/A
1:00 PM82 °FScattered clouds.16 mph79%29.98 "HgN/A
12:00 PM82 °FScattered clouds.13 mph79%30.01 "Hg5 mi
11:30 AM81 °FBroken clouds.13 mph84%30.01 "Hg5 mi
11:00 AM81 °FBroken clouds.12 mph84%30.01 "Hg5 mi
10:30 AM81 °FBroken clouds.10 mph84%30.04 "Hg5 mi
10:00 AM81 °FScattered clouds.13 mph84%30.04 "HgN/A
9:30 AM81 °FScattered clouds.10 mph84%30.04 "HgN/A
9:00 AM79 °FBroken clouds.10 mph89%30.04 "Hg5 mi
8:30 AM79 °FScattered clouds.7 mph89%30.04 "Hg5 mi
8:00 AM79 °FScattered clouds.8 mph89%30.04 "Hg5 mi
6:00 AM77 °FScattered clouds.8 mph94%29.98 "Hg5 mi
5:00 AM77 °FPassing clouds.5 mph94%29.98 "Hg5 mi
4:30 AM77 °FPassing clouds.5 mph94%29.98 "HgN/A
4:00 AM77 °FPassing clouds.6 mph94%29.98 "HgN/A
3:30 AM77 °FPassing clouds.7 mph94%29.98 "HgN/A
2:30 AM77 °FPassing clouds.6 mph94%29.98 "HgN/A
2:00 AM79 °FPassing clouds.2 mph84%29.98 "HgN/A
1:30 AM79 °FPassing clouds.6 mph84%29.98 "HgN/A
1:00 AM79 °FPassing clouds.10 mph84%29.98 "HgN/A
12:30 AM79 °FPassing clouds.7 mph89%30.01 "HgN/A
12:00 AM79 °FPassing clouds.8 mph84%30.01 "HgN/A
Weather by CustomWeather, © 2016

See weather overviewHow to use our weather pages